Time,TemperatureF,DewpointF,PressureIn,WindDirection,WindDirectionDegrees,WindSpeedMPH,WindSpeedGustMPH,Humidity,HourlyPrecipIn,Conditions,Clouds,dailyrainin,SoftwareType,DateUTC
2013-03-02 00:02:00,38.0,25.0,29.70,WNW,296,5.0,11.0,59,0.00,,,0.00,,2013-03-02 05:02:00,
2013-03-02 00:12:00,38.0,25.0,29.70,WNW,296,5.0,11.0,59,0.00,,,0.00,,2013-03-02 05:12:00,
2013-03-02 00:22:00,38.0,25.0,29.70,NW,311,5.0,13.0,59,0.00,,,0.00,,2013-03-02 05:22:00,
2013-03-02 00:32:00,38.0,25.0,29.69,NNW,327,5.0,12.0,59,0.00,,,0.00,,2013-03-02 05:32:00,
2013-03-02 00:42:00,38.0,25.0,29.69,NNW,327,5.0,12.0,59,0.00,,,0.00,,2013-03-02 05:42:00,
2013-03-02 00:52:00,38.0,25.0,29.69,NNW,327,5.0,12.0,59,0.00,,,0.00,,2013-03-02 05:52:00,
2013-03-02 01:02:00,38.0,25.0,29.69,NW,314,6.0,13.0,59,0.00,,,0.00,,2013-03-02 06:02:00,
2013-03-02 01:11:00,38.0,25.0,29.69,NW,314,6.0,13.0,59,0.00,,,0.00,,2013-03-02 06:11:00,
2013-03-02 01:22:00,37.0,24.0,29.69,NW,319,8.0,14.0,60,0.00,,,0.00,,2013-03-02 06:22:00,
2013-03-02 01:32:00,37.0,25.0,29.69,NW,318,5.0,9.0,61,0.00,,,0.00,,2013-03-02 06:32:00,
2013-03-02 01:42:00,37.0,25.0,29.69,NW,318,5.0,9.0,61,0.00,,,0.00,,2013-03-02 06:42:00,
2013-03-02 01:52:00,37.0,25.0,29.69,West,278,5.0,9.0,61,0.00,,,0.00,,2013-03-02 06:52:00,
2013-03-02 02:02:00,37.0,25.0,29.69,NW,314,7.0,14.0,61,0.00,,,0.00,,2013-03-02 07:02:00,
2013-03-02 02:11:00,36.0,24.0,29.69,West,277,6.0,12.0,61,0.00,,,0.00,,2013-03-02 07:11:00,
2013-03-02 02:21:00,36.0,24.0,29.69,West,277,6.0,12.0,61,0.00,,,0.00,,2013-03-02 07:21:00,
2013-03-02 02:32:00,36.0,24.0,29.69,NW,323,5.0,10.0,62,0.00,,,0.00,,2013-03-02 07:32:00,
2013-03-02 02:42:00,36.0,24.0,29.69,NW,323,5.0,10.0,62,0.00,,,0.00,,2013-03-02 07:42:00,
2013-03-02 02:51:00,36.0,24.0,29.69,WNW,299,6.0,12.0,62,0.00,,,0.00,,2013-03-02 07:51:00,
2013-03-02 03:01:00,36.0,24.0,29.69,NW,307,7.0,15.0,61,0.00,,,0.00,,2013-03-02 08:01:00,
2013-03-02 03:11:00,36.0,24.0,29.69,NW,307,7.0,15.0,61,0.00,,,0.00,,2013-03-02 08:11:00,
2013-03-02 03:22:00,36.0,24.0,29.69,NW,314,7.0,14.0,61,0.00,,,0.00,,2013-03-02 08:22:00,
2013-03-02 03:32:00,35.0,23.0,29.70,NW,304,5.0,14.0,61,0.00,,,0.00,,2013-03-02 08:32:00,
2013-03-02 03:42:00,35.0,23.0,29.70,NW,304,5.0,14.0,61,0.00,,,0.00,,2013-03-02 08:42:00,
2013-03-02 03:52:00,35.0,23.0,29.70,NW,309,7.0,12.0,61,0.00,,,0.00,,2013-03-02 08:52:00,
2013-03-02 04:02:00,35.0,23.0,29.70,WNW,302,5.0,14.0,62,0.00,,,0.00,,2013-03-02 09:02:00,
2013-03-02 04:11:00,35.0,24.0,29.70,WNW,282,4.0,9.0,63,0.00,,,0.00,,2013-03-02 09:11:00,
2013-03-02 04:22:00,35.0,24.0,29.70,WNW,282,4.0,9.0,63,0.00,,,0.00,,2013-03-02 09:22:00,
2013-03-02 04:32:00,35.0,24.0,29.70,NNW,331,6.0,9.0,63,0.00,,,0.00,,2013-03-02 09:32:00,
2013-03-02 04:42:00,35.0,24.0,29.70,NNW,331,6.0,9.0,63,0.00,,,0.00,,2013-03-02 09:42:00,
2013-03-02 04:52:00,35.0,24.0,29.70,NW,317,5.0,10.0,63,0.00,,,0.00,,2013-03-02 09:52:00,
2013-03-02 05:01:00,34.0,22.0,29.70,NW,308,5.0,10.0,62,0.00,,,0.00,,2013-03-02 10:01:00,
2013-03-02 05:16:00,34.0,22.0,29.70,NW,308,5.0,10.0,62,0.00,,,0.00,,2013-03-02 10:16:00,
2013-03-02 05:22:00,34.0,22.0,29.70,WNW,295,4.0,11.0,62,0.00,,,0.00,,2013-03-02 10:22:00,
2013-03-02 05:32:00,34.0,22.0,29.70,WNW,283,4.0,13.0,62,0.00,,,0.00,,2013-03-02 10:32:00,
2013-03-02 05:43:00,34.0,22.0,29.70,WNW,283,4.0,13.0,62,0.00,,,0.00,,2013-03-02 10:43:00,
2013-03-02 05:52:00,34.0,22.0,29.70,WNW,300,6.0,12.0,62,0.00,,,0.00,,2013-03-02 10:52:00,
2013-03-02 06:01:00,34.0,22.0,29.70,NW,306,5.0,9.0,62,0.00,,,0.00,,2013-03-02 11:01:00,
2013-03-02 06:11:00,34.0,22.0,29.70,NW,306,5.0,9.0,62,0.00,,,0.00,,2013-03-02 11:11:00,
2013-03-02 06:21:00,34.0,22.0,29.70,NW,317,4.0,8.0,62,0.00,,,0.00,,2013-03-02 11:21:00,
2013-03-02 06:32:00,34.0,22.0,29.70,West,281,4.0,11.0,62,0.00,,,0.00,,2013-03-02 11:32:00,
2013-03-02 06:42:00,34.0,22.0,29.70,West,281,4.0,11.0,62,0.00,,,0.00,,2013-03-02 11:42:00,
2013-03-02 06:52:00,34.0,23.0,29.70,WNW,298,5.0,8.0,63,0.00,,,0.00,,2013-03-02 11:52:00,
2013-03-02 07:02:00,33.0,22.0,29.70,NW,306,3.0,8.0,64,0.00,,,0.00,,2013-03-02 12:02:00,
2013-03-02 07:11:00,33.0,22.0,29.70,NW,306,3.0,8.0,64,0.00,,,0.00,,2013-03-02 12:11:00,
2013-03-02 07:22:00,33.0,22.0,29.70,West,280,6.0,11.0,64,0.00,,,0.00,,2013-03-02 12:22:00,
2013-03-02 07:33:00,33.0,21.0,29.70,WNW,287,8.0,14.0,62,0.00,,,0.00,,2013-03-02 12:33:00,
2013-03-02 07:43:00,33.0,21.0,29.70,WNW,287,8.0,14.0,62,0.00,,,0.00,,2013-03-02 12:43:00,
2013-03-02 07:53:00,33.0,21.0,29.70,WNW,290,5.0,11.0,62,0.00,,,0.00,,2013-03-02 12:53:00,
2013-03-02 08:01:00,34.0,22.0,29.70,NW,320,7.0,11.0,61,0.00,,,0.00,,2013-03-02 13:01:00,
2013-03-02 08:11:00,34.0,22.0,29.70,NW,320,7.0,11.0,61,0.00,,,0.00,,2013-03-02 13:11:00,
2013-03-02 08:22:00,34.0,22.0,29.70,WNW,296,5.0,16.0,60,0.00,,,0.00,,2013-03-02 13:22:00,
2013-03-02 08:32:00,34.0,21.0,29.70,West,264,8.0,14.0,59,0.00,,,0.00,,2013-03-02 13:32:00,
2013-03-02 08:42:00,34.0,21.0,29.70,West,264,8.0,14.0,59,0.00,,,0.00,,2013-03-02 13:42:00,
2013-03-02 08:52:00,34.0,21.0,29.70,NW,306,9.0,14.0,59,0.00,,,0.00,,2013-03-02 13:52:00,
2013-03-02 09:01:00,35.0,21.0,29.70,WNW,302,7.0,14.0,57,0.00,,,0.00,,2013-03-02 14:01:00,
2013-03-02 09:11:00,35.0,21.0,29.70,WNW,302,7.0,14.0,57,0.00,,,0.00,,2013-03-02 14:11:00,
2013-03-02 09:22:00,36.0,22.0,29.70,NNW,327,6.0,12.0,57,0.00,,,0.00,,2013-03-02 14:22:00,
2013-03-02 09:32:00,36.0,22.0,29.70,NW,309,7.0,14.0,56,0.00,,,0.00,,2013-03-02 14:32:00,
2013-03-02 09:42:00,36.0,22.0,29.70,NW,309,7.0,14.0,56,0.00,,,0.00,,2013-03-02 14:42:00,
2013-03-02 09:52:00,36.0,21.0,29.70,West,271,5.0,12.0,55,0.00,,,0.00,,2013-03-02 14:52:00,
2013-03-02 10:02:00,38.0,22.0,29.70,NW,304,4.0,12.0,53,0.00,,,0.00,,2013-03-02 15:02:00,
2013-03-02 10:11:00,38.0,22.0,29.70,NW,304,4.0,12.0,53,0.00,,,0.00,,2013-03-02 15:11:00,
2013-03-02 10:22:00,38.0,22.0,29.70,WNW,294,6.0,13.0,53,0.00,,,0.00,,2013-03-02 15:22:00,
2013-03-02 10:32:00,39.0,23.0,29.68,North,351,4.0,11.0,52,0.00,,,0.00,,2013-03-02 15:32:00,
2013-03-02 10:42:00,39.0,23.0,29.68,North,351,4.0,11.0,52,0.00,,,0.00,,2013-03-02 15:42:00,
2013-03-02 10:52:00,38.0,22.0,29.68,NNW,329,6.0,14.0,53,0.00,,,0.00,,2013-03-02 15:52:00,
2013-03-02 11:02:00,38.0,22.0,29.69,NW,311,5.0,14.0,52,0.00,,,0.00,,2013-03-02 16:02:00,
2013-03-02 11:11:00,38.0,22.0,29.69,NW,311,5.0,14.0,52,0.00,,,0.00,,2013-03-02 16:11:00,
2013-03-02 11:21:00,38.0,22.0,29.69,NW,309,8.0,14.0,52,0.00,,,0.00,,2013-03-02 16:21:00,
2013-03-02 11:32:00,39.0,22.0,29.68,North,351,2.0,11.0,50,0.00,,,0.00,,2013-03-02 16:32:00,
2013-03-02 11:42:00,39.0,22.0,29.68,North,351,2.0,11.0,50,0.00,,,0.00,,2013-03-02 16:42:00,
2013-03-02 11:52:00,39.0,21.0,29.68,WNW,292,7.0,12.0,49,0.00,,,0.00,,2013-03-02 16:52:00,
2013-03-02 12:01:00,40.0,23.0,29.68,NW,323,4.0,11.0,50,0.00,,,0.00,,2013-03-02 17:01:00,
2013-03-02 12:11:00,40.0,23.0,29.68,NW,323,4.0,11.0,50,0.00,,,0.00,,2013-03-02 17:11:00,
2013-03-02 12:21:00,40.0,22.0,29.68,WSW,240,2.0,10.0,49,0.00,,,0.00,,2013-03-02 17:21:00,
2013-03-02 12:32:00,40.0,22.0,29.67,NW,311,2.0,11.0,49,0.00,,,0.00,,2013-03-02 17:32:00,
2013-03-02 12:42:00,40.0,22.0,29.67,NW,311,2.0,11.0,49,0.00,,,0.00,,2013-03-02 17:42:00,
2013-03-02 12:52:00,40.0,22.0,29.67,NW,314,5.0,10.0,49,0.00,,,0.00,,2013-03-02 17:52:00,
2013-03-02 13:02:00,40.0,22.0,29.65,WNW,296,6.0,14.0,48,0.00,,,0.00,,2013-03-02 18:02:00,
2013-03-02 13:11:00,40.0,22.0,29.65,WNW,296,6.0,14.0,48,0.00,,,0.00,,2013-03-02 18:11:00,
2013-03-02 13:22:00,40.0,22.0,29.65,WNW,293,6.0,11.0,48,0.00,,,0.00,,2013-03-02 18:22:00,
2013-03-02 13:32:00,40.0,22.0,29.65,WNW,288,5.0,11.0,48,0.00,,,0.00,,2013-03-02 18:32:00,
2013-03-02 13:42:00,40.0,22.0,29.65,WNW,288,5.0,11.0,48,0.00,,,0.00,,2013-03-02 18:42:00,
2013-03-02 13:52:00,41.0,22.0,29.65,WNW,288,4.0,12.0,47,0.00,,,0.00,,2013-03-02 18:52:00,
2013-03-02 14:02:00,40.0,22.0,29.64,NW,306,4.0,11.0,48,0.00,,,0.00,,2013-03-02 19:02:00,
2013-03-02 14:12:00,40.0,22.0,29.64,NW,306,4.0,11.0,48,0.00,,,0.00,,2013-03-02 19:12:00,
2013-03-02 14:22:00,41.0,23.0,29.64,NNW,329,4.0,12.0,48,0.00,,,0.00,,2013-03-02 19:22:00,
2013-03-02 14:32:00,41.0,23.0,29.63,North,360,3.0,9.0,48,0.00,,,0.00,,2013-03-02 19:32:00,
2013-03-02 14:42:00,41.0,23.0,29.63,North,360,3.0,9.0,48,0.00,,,0.00,,2013-03-02 19:42:00,
2013-03-02 14:52:00,40.0,21.0,29.63,NW,326,5.0,9.0,47,0.00,,,0.00,,2013-03-02 19:52:00,
2013-03-02 15:02:00,40.0,22.0,29.62,NW,325,5.0,14.0,48,0.00,,,0.00,,2013-03-02 20:02:00,
2013-03-02 15:11:00,40.0,22.0,29.62,NW,325,5.0,14.0,48,0.00,,,0.00,,2013-03-02 20:11:00,
2013-03-02 15:22:00,40.0,22.0,29.62,WNW,296,6.0,11.0,48,0.00,,,0.00,,2013-03-02 20:22:00,
2013-03-02 15:32:00,40.0,22.0,29.62,WNW,282,4.0,13.0,49,0.00,,,0.00,,2013-03-02 20:32:00,
2013-03-02 15:42:00,40.0,22.0,29.62,WNW,282,4.0,13.0,49,0.00,,,0.00,,2013-03-02 20:42:00,
2013-03-02 15:52:00,40.0,23.0,29.62,NW,304,7.0,12.0,50,0.00,,,0.00,,2013-03-02 20:52:00,
2013-03-02 16:02:00,39.0,23.0,29.62,NW,319,9.0,15.0,52,0.00,,,0.00,,2013-03-02 21:02:00,
2013-03-02 16:11:00,39.0,23.0,29.62,NW,319,9.0,15.0,52,0.00,,,0.00,,2013-03-02 21:11:00,
2013-03-02 16:22:00,39.0,23.0,29.62,West,272,3.0,12.0,53,0.00,,,0.00,,2013-03-02 21:22:00,
2013-03-02 16:32:00,39.0,23.0,29.62,NNW,330,7.0,11.0,52,0.00,,,0.00,,2013-03-02 21:32:00,
2013-03-02 16:42:00,39.0,23.0,29.62,NNW,330,7.0,11.0,52,0.00,,,0.00,,2013-03-02 21:42:00,
2013-03-02 16:52:00,39.0,23.0,29.62,NNW,340,5.0,11.0,52,0.00,,,0.00,,2013-03-02 21:52:00,
2013-03-02 17:02:00,39.0,23.0,29.63,NW,315,4.0,14.0,53,0.00,,,0.00,,2013-03-02 22:02:00,
2013-03-02 17:11:00,39.0,23.0,29.63,NW,315,4.0,14.0,53,0.00,,,0.00,,2013-03-02 22:11:00,
2013-03-02 17:22:00,39.0,24.0,29.63,NW,323,6.0,12.0,54,0.00,,,0.00,,2013-03-02 22:22:00,
2013-03-02 17:32:00,39.0,23.0,29.63,WNW,290,7.0,14.0,53,0.00,,,0.00,,2013-03-02 22:32:00,
2013-03-02 17:42:00,39.0,23.0,29.63,WNW,290,7.0,14.0,53,0.00,,,0.00,,2013-03-02 22:42:00,
2013-03-02 17:52:00,38.0,23.0,29.63,WNW,289,1.0,13.0,54,0.00,,,0.00,,2013-03-02 22:52:00,
2013-03-02 18:01:00,38.0,23.0,29.64,NW,321,4.0,13.0,54,0.00,,,0.00,,2013-03-02 23:01:00,
2013-03-02 18:11:00,38.0,23.0,29.64,NW,315,4.0,9.0,55,0.00,,,0.00,,2013-03-02 23:11:00,
2013-03-02 18:21:00,38.0,23.0,29.64,NW,315,4.0,9.0,55,0.00,,,0.00,,2013-03-02 23:21:00,
2013-03-02 18:32:00,38.0,23.0,29.65,NW,317,5.0,13.0,55,0.00,,,0.00,,2013-03-02 23:32:00,
2013-03-02 18:42:00,38.0,23.0,29.65,NW,317,5.0,13.0,55,0.00,,,0.00,,2013-03-02 23:42:00,
2013-03-02 18:52:00,38.0,23.0,29.65,WNW,301,5.0,10.0,55,0.00,,,0.00,,2013-03-02 23:52:00,
2013-03-02 19:02:00,37.0,22.0,29.66,NW,311,6.0,11.0,55,0.00,,,0.00,,2013-03-03 00:02:00,
2013-03-02 19:11:00,37.0,22.0,29.66,NW,311,6.0,11.0,55,0.00,,,0.00,,2013-03-03 00:11:00,
2013-03-02 19:22:00,37.0,23.0,29.66,West,273,4.0,13.0,56,0.00,,,0.00,,2013-03-03 00:22:00,
2013-03-02 19:32:00,37.0,23.0,29.66,NW,306,7.0,13.0,56,0.00,,,0.00,,2013-03-03 00:32:00,
2013-03-02 19:42:00,37.0,23.0,29.66,NW,306,7.0,13.0,56,0.00,,,0.00,,2013-03-03 00:42:00,
2013-03-02 19:52:00,37.0,22.0,29.66,NW,323,6.0,11.0,55,0.00,,,0.00,,2013-03-03 00:52:00,
2013-03-02 20:01:00,36.0,21.0,29.66,WNW,301,6.0,11.0,55,0.00,,,0.00,,2013-03-03 01:01:00,
2013-03-02 20:11:00,36.0,21.0,29.66,WNW,301,6.0,11.0,55,0.00,,,0.00,,2013-03-03 01:11:00,
2013-03-02 20:21:00,36.0,22.0,29.66,NW,319,4.0,12.0,57,0.00,,,0.00,,2013-03-03 01:21:00,
2013-03-02 20:32:00,36.0,23.0,29.66,NW,311,7.0,12.0,58,0.00,,,0.00,,2013-03-03 01:32:00,
2013-03-02 20:42:00,36.0,23.0,29.66,NW,311,7.0,12.0,58,0.00,,,0.00,,2013-03-03 01:42:00,
2013-03-02 20:52:00,36.0,23.0,29.66,NW,305,5.0,13.0,59,0.00,,,0.00,,2013-03-03 01:52:00,
2013-03-02 21:01:00,35.0,23.0,29.66,NW,308,7.0,14.0,62,0.00,,,0.00,,2013-03-03 02:01:00,
2013-03-02 21:11:00,35.0,23.0,29.66,NW,308,7.0,14.0,62,0.00,,,0.00,,2013-03-03 02:11:00,
2013-03-02 21:21:00,35.0,23.0,29.66,WNW,290,6.0,13.0,62,0.00,,,0.00,,2013-03-03 02:21:00,
2013-03-02 21:32:00,35.0,24.0,29.67,WNW,296,6.0,14.0,63,0.00,,,0.00,,2013-03-03 02:32:00,
2013-03-02 21:42:00,35.0,24.0,29.67,WNW,296,6.0,14.0,63,0.00,,,0.00,,2013-03-03 02:42:00,
2013-03-02 21:52:00,34.0,23.0,29.67,NW,305,4.0,10.0,63,0.00,,,0.00,,2013-03-03 02:52:00,
2013-03-02 22:01:00,34.0,23.0,29.67,NW,313,4.0,8.0,64,0.00,,,0.00,,2013-03-03 03:01:00,
2013-03-02 22:11:00,34.0,23.0,29.67,NW,313,4.0,8.0,64,0.00,,,0.00,,2013-03-03 03:11:00,
2013-03-02 22:21:00,34.0,23.0,29.67,NW,320,6.0,14.0,64,0.00,,,0.00,,2013-03-03 03:21:00,
2013-03-02 22:32:00,33.0,23.0,29.67,NW,311,5.0,14.0,66,0.00,,,0.00,,2013-03-03 03:32:00,
2013-03-02 22:42:00,33.0,23.0,29.67,NW,311,5.0,14.0,66,0.00,,,0.00,,2013-03-03 03:42:00,
2013-03-02 22:52:00,33.0,24.0,29.67,WNW,284,6.0,10.0,68,0.00,,,0.00,,2013-03-03 03:52:00,
2013-03-02 23:01:00,32.0,24.0,29.66,NW,316,4.0,13.0,71,0.00,,,0.00,,2013-03-03 04:01:00,
2013-03-02 23:11:00,32.0,24.0,29.66,NW,316,4.0,13.0,71,0.00,,,0.00,,2013-03-03 04:11:00,
2013-03-02 23:21:00,32.0,24.0,29.66,WNW,290,5.0,11.0,72,0.00,,,0.00,,2013-03-03 04:21:00,
2013-03-02 23:32:00,31.0,24.0,29.66,NW,313,7.0,13.0,74,0.00,,,0.00,,2013-03-03 04:32:00,
2013-03-02 23:42:00,31.0,24.0,29.66,NW,313,7.0,13.0,74,0.00,,,0.00,,2013-03-03 04:42:00,
2013-03-02 23:51:00,31.0,24.0,29.66,NW,311,8.0,14.0,74,0.00,,,0.00,,2013-03-03 04:51:00,